Total_Precipitation_Accumulation
0.69 0.75 0.87 1.05 1.25 1.31 1.35 1.50 1.56 1.72 1.95 2.19 2.38 2.43 2.48 2.44 2.42 2.37 2.37 2.34 2.36 2.36 2.34 2.28 2.37 2.39 2.34 2.22 2.11 2.01 1.95 1.81 1.65 1.72 1.78 1.64 1.34 1.14 1.03 0.99 0.97 0.87 0.77
0.71 0.81 0.91 1.05 1.30 1.38 1.38 1.50 1.63 1.73 1.78 1.91 2.10 2.21 2.37 2.44 2.42 2.33 2.35 2.31 2.26 2.25 2.34 2.35 2.23 2.20 2.20 2.18 2.10 2.01 1.96 1.91 1.78 1.76 1.87 1.88 1.76 1.40 1.05 0.95 0.94 0.93 0.91
0.74 0.80 0.90 1.03 1.30 1.46 1.48 1.51 1.60 1.75 1.83 1.95 2.18 2.33 2.56 2.65 2.69 2.49 2.34 2.28 2.28 2.18 2.15 2.28 2.29 2.19 2.13 2.10 2.05 1.95 1.86 1.85 1.73 1.56 1.76 1.85 1.61 1.29 1.09 0.96 0.87 0.85 0.93
0.75 0.82 0.84 0.96 1.16 1.34 1.47 1.55 1.67 1.79 1.82 2.01 2.22 2.25 2.41 2.47 2.40 2.29 2.22 2.15 2.21 2.22 2.14 2.12 2.20 2.23 2.12 1.99 1.97 1.98 1.92 1.93 1.92 1.71 1.50 1.47 1.37 1.35 1.19 1.03 0.97 0.91 0.88
0.72 0.80 0.82 0.83 0.97 1.14 1.34 1.50 1.70 1.85 1.88 1.93 2.12 2.20 2.17 2.24 2.35 2.39 2.34 2.25 2.21 2.19 2.16 2.15 2.15 2.15 2.12 1.97 1.90 1.93 1.98 2.00 1.99 1.90 1.67 1.48 1.26 1.18 1.27 1.09 0.98 1.06 1.01
0.77 0.80 0.79 0.78 0.90 1.07 1.25 1.41 1.61 1.77 1.87 1.87 1.98 2.16 2.14 2.13 2.25 2.42 2.46 2.38 2.29 2.22 2.12 2.06 2.08 2.05 1.96 1.91 1.86 1.84 1.82 1.86 1.88 1.84 1.74 1.65 1.54 1.31 1.28 1.20 0.98 0.98 1.00
0.79 0.85 0.74 0.78 0.84 0.95 1.13 1.31 1.52 1.62 1.74 1.79 1.85 1.92 2.06 2.07 2.06 2.11 2.21 2.36 2.31 2.19 2.11 2.04 1.98 1.96 1.87 1.79 1.78 1.80 1.77 1.70 1.72 1.74 1.66 1.56 1.45 1.34 1.38 1.49 1.35 1.17 1.03
0.74 0.80 0.77 0.79 0.83 0.86 0.99 1.16 1.30 1.50 1.67 1.76 1.78 1.81 1.89 2.03 1.98 1.97 1.94 2.05 2.11 1.99 1.93 1.99 1.94 1.89 1.87 1.86 1.84 1.80 1.78 1.76 1.66 1.58 1.56 1.57 1.45 1.42 1.53 1.66 1.76 1.69 1.29
0.80 0.78 0.79 0.82 0.80 0.87 0.94 1.09 1.18 1.33 1.56 1.74 1.81 1.80 1.83 1.89 1.90 1.87 1.88 1.88 1.91 1.93 1.92 1.92 1.91 1.86 1.90 1.98 2.01 1.96 1.82 1.77 1.73 1.66 1.56 1.56 1.51 1.47 1.47 1.55 1.73 2.06 1.89
0.90 0.88 0.83 0.89 0.87 0.89 0.94 1.00 1.14 1.24 1.40 1.63 1.85 1.86 1.81 1.77 1.83 1.90 1.92 1.88 1.84 1.87 1.90 1.91 1.92 1.87 1.81 1.89 1.99 1.95 1.86 1.85 1.77 1.75 1.72 1.59 1.51 1.52 1.56 1.63 1.66 1.76 1.94
0.90 0.86 0.79 0.81 0.86 0.88 0.97 1.02 1.10 1.21 1.33 1.45 1.65 1.79 1.81 1.82 1.84 1.86 1.82 1.85 1.84 1.84 1.82 1.79 1.82 1.89 1.86 1.81 1.89 1.86 1.81 1.83 1.76 1.71 1.74 1.64 1.54 1.66 1.70 1.76 1.79 1.73 1.77
0.80 0.80 0.74 0.75 0.82 0.92 0.99 1.07 1.11 1.12 1.22 1.35 1.48 1.63 1.76 1.81 1.85 1.80 1.79 1.83 1.84 1.82 1.75 1.71 1.73 1.78 1.81 1.79 1.83 1.83 1.79 1.78 1.75 1.69 1.70 1.69 1.62 1.63 1.67 1.78 1.80 1.72 1.64
0.76 0.80 0.81 0.78 0.82 0.91 0.99 1.06 1.12 1.07 1.12 1.32 1.45 1.57 1.68 1.71 1.75 1.68 1.71 1.86 1.92 1.89 1.74 1.69 1.71 1.74 1.81 1.80 1.75 1.85 1.84 1.75 1.68 1.64 1.66 1.69 1.69 1.62 1.57 1.67 1.72 1.66 1.62
0.69 0.79 0.90 0.86 0.80 0.85 0.92 0.96 1.06 1.11 1.12 1.21 1.39 1.51 1.62 1.59 1.57 1.59 1.57 1.68 1.82 1.89 1.80 1.68 1.64 1.71 1.84 1.87 1.84 1.93 1.91 1.80 1.66 1.55 1.53 1.60 1.74 1.76 1.74 1.75 1.71 1.74 1.85
0.61 0.77 0.89 0.89 0.90 0.92 0.95 0.93 0.96 1.09 1.17 1.15 1.26 1.35 1.47 1.56 1.52 1.51 1.55 1.63 1.71 1.71 1.73 1.74 1.67 1.70 1.94 2.17 2.30 2.18 1.93 1.76 1.67 1.49 1.39 1.47 1.75 1.98 2.15 2.18 2.01 2.03 2.23
0.57 0.64 0.74 0.82 0.93 1.01 1.03 1.01 0.98 1.04 1.16 1.15 1.21 1.26 1.41 1.54 1.52 1.46 1.53 1.66 1.76 1.73 1.70 1.72 1.70 1.66 1.86 2.33 2.55 2.16 1.78 1.64 1.61 1.54 1.39 1.40 1.69 1.89 2.08 2.24 2.19 2.20 2.40
0.53 0.55 0.66 0.80 0.90 1.00 1.03 1.04 1.02 1.05 1.15 1.18 1.20 1.26 1.40 1.47 1.52 1.49 1.52 1.63 1.74 1.75 1.72 1.69 1.68 1.65 1.73 2.14 2.36 2.12 1.76 1.60 1.51 1.45 1.41 1.44 1.54 1.71 1.73 1.91 2.00 1.97 2.12
0.57 0.57 0.65 0.78 0.82 0.90 0.96 0.99 0.96 1.09 1.18 1.19 1.19 1.26 1.36 1.40 1.52 1.54 1.53 1.65 1.72 1.66 1.66 1.66 1.63 1.61 1.68 2.03 2.27 2.12 1.79 1.68 1.58 1.53 1.43 1.36 1.40 1.55 1.75 1.86 1.85 1.73 1.75
0.60 0.62 0.66 0.75 0.74 0.82 0.89 0.95 0.92 1.01 1.12 1.18 1.13 1.19 1.30 1.37 1.45 1.50 1.55 1.63 1.71 1.66 1.59 1.58 1.62 1.58 1.62 1.97 2.31 2.18 1.82 1.76 1.64 1.59 1.51 1.37 1.31 1.57 1.80 1.75 1.71 1.61 1.61
0.53 0.62 0.64 0.67 0.70 0.75 0.81 0.87 0.92 0.96 1.08 1.13 1.04 1.11 1.21 1.29 1.40 1.45 1.51 1.57 1.58 1.59 1.59 1.55 1.56 1.54 1.53 1.83 2.25 2.34 1.86 1.74 1.64 1.62 1.55 1.62 1.57 1.71 1.76 1.62 1.69 1.80 1.64
0.54 0.58 0.59 0.64 0.70 0.75 0.77 0.82 0.90 0.97 1.04 1.11 1.03 1.08 1.14 1.22 1.34 1.44 1.44 1.51 1.55 1.55 1.60 1.60 1.58 1.54 1.57 1.69 2.00 2.36 2.04 1.84 1.67 1.65 1.63 1.55 1.75 1.78 1.76 1.72 1.67 1.85 1.74
0.56 0.59 0.61 0.63 0.67 0.70 0.75 0.78 0.83 0.90 1.00 1.06 1.04 1.11 1.16 1.19 1.26 1.37 1.38 1.40 1.51 1.57 1.59 1.62 1.67 1.64 1.61 1.66 1.88 2.15 2.12 2.00 1.77 1.66 1.53 1.50 1.71 1.75 1.79 1.72 1.76 1.84 1.80
0.64 0.64 0.66 0.64 0.66 0.70 0.75 0.83 0.85 0.88 1.00 1.05 1.04 1.10 1.19 1.23 1.26 1.30 1.33 1.37 1.45 1.53 1.56 1.55 1.56 1.59 1.54 1.64 1.94 1.93 1.95 1.97 1.85 1.80 1.83 1.76 1.83 1.83 1.70 1.67 1.72 1.66 1.56
0.69 0.71 0.72 0.70 0.70 0.72 0.77 0.86 0.90 0.90 1.00 1.03 1.03 1.09 1.15 1.21 1.26 1.24 1.19 1.22 1.33 1.47 1.49 1.49 1.44 1.40 1.43 1.62 1.83 1.77 1.72 1.81 1.88 1.94 1.92 1.90 1.91 1.84 1.75 1.67 1.53 1.41 1.45
0.70 0.72 0.75 0.77 0.78 0.75 0.81 0.88 0.92 0.92 1.00 0.98 0.96 1.03 1.06 1.15 1.26 1.25 1.20 1.20 1.20 1.40 1.58 1.53 1.48 1.52 1.61 1.76 1.94 1.89 1.82 1.85 1.91 2.00 2.04 1.96 1.91 1.89 1.74 1.53 1.36 1.31 1.42
0.70 0.71 0.73 0.77 0.83 0.82 0.84 0.90 0.94 0.94 0.96 0.97 0.94 0.98 1.02 1.07 1.16 1.20 1.26 1.39 1.37 1.40 1.42 1.44 1.53 1.50 1.64 1.75 1.78 1.82 1.89 1.99 2.05 2.10 2.06 1.84 1.63 1.56 1.49 1.41 1.34 1.28 1.29